Weather History for Grand Prairie, TX

Change the Weather History Date:

Sunday, March 9, 2014

  Actual Average (KDFW) Record (KDFW)
Temperature  
Mean Temperature 48 °F 56 °F  
Max Temperature 60 °F 66 °F 100 °F (1911)
Min Temperature 35 °F 45 °F 20 °F (1996)
Degree Days  
Heating Degree Days 18 10  
Month to date heating degree days 99  
Since 1 July heating degree days 2031  
Cooling Degree Days 0 1  
Month to date cooling degree days 7  
Year to date cooling degree days 14  
Moisture  
Dew Point 35 °F    
Average Humidity 69    
Maximum Humidity 87    
Minimum Humidity 45    
Precipitation  
Precipitation 0.00 in 0.11 in 1.59 in (1953)
Month to date precipitation 1.02  
Year to date precipitation 5.81  
Snow  
Snow 0.00 in 0.00 in 2.20 in (1915)
Month to date snowfall 0.0  
Since 1 July snowfall 1.0  
Snow Depth -    
Sea Level Pressure  
Sea Level Pressure 30.29 in    
Wind  
Wind Speed 6 mph (NW)    
Max Wind Speed 9 mph    
Max Gust Speed 20 mph    
Visibility 9 miles    
Events      
T = Trace of Precipitation, MM = Missing Value Source: NWS Daily Summary

Daily Weather History Graph

Daily Weather History Graph

Search for Another Location

Airport:

Trip Planner

Search our weather history database for the weather conditions in past years. The results will help you decide how hot, cold, wet, or windy it might be!

Date:

Astronomy

Mar. 09, 2014 Rise Set
Actual Time 7:46 AM CDT 7:31 PM CDT
Civil Twilight 7:21 AM CDT 7:56 PM CDT
Nautical Twilight 6:52 AM CDT 8:24 PM CDT
Astronomical Twilight 6:24 AM CDT 8:53 PM CDT
Moon 1:39 PM CDT (3/9) 3:59 AM CDT (3/9)
Length of Visible Light 12h 34m
Length of Day
11h 45m
First Quarter, 61% of the Moon is Illuminated
Mar 9
First Quarter
Mar 16
Full
Mar 23
Last Quarter
Mar 30
New
Apr 7
First Quarter

Hourly Weather History & Observations

Time (CDT) Temp. Windchill Dew Point Humidity Pressure Visibility Wind Dir Wind Speed Gust Speed Precip Events Conditions
12:15 AM 37.4 °F 30.8 °F 32.0 °F 81% 30.33 in 10.0 mi NNW 9.2 mph - N/A   Overcast
12:35 AM 37.4 °F 30.8 °F 32.0 °F 81% 30.35 in 10.0 mi NNW 9.2 mph - N/A   Overcast
12:55 AM 37.4 °F 31.4 °F 32.0 °F 81% 30.34 in 10.0 mi NNW 8.1 mph - N/A   Overcast
1:15 AM 37.4 °F 31.4 °F 32.0 °F 81% 30.34 in 10.0 mi NNW 8.1 mph 19.6 mph N/A   Overcast
1:35 AM 37.4 °F 32.1 °F 32.0 °F 81% 30.34 in 10.0 mi NNW 6.9 mph - N/A   Overcast
1:55 AM 37.4 °F 32.1 °F 32.0 °F 81% 30.33 in 10.0 mi NNW 6.9 mph - N/A   Overcast
3:15 AM 35.6 °F 29.9 °F 32.0 °F 87% 30.33 in 10.0 mi NNW 6.9 mph - N/A   Overcast
3:35 AM 37.4 °F 32.8 °F 32.0 °F 81% 30.33 in 10.0 mi NNW 5.8 mph - N/A   Overcast
3:55 AM 35.6 °F 31.7 °F 32.0 °F 87% 30.32 in 10.0 mi NNW 4.6 mph - N/A   Overcast
4:15 AM 35.6 °F 29.9 °F 32.0 °F 87% 30.32 in 10.0 mi NW 6.9 mph - N/A   Overcast
4:35 AM 35.6 °F 29.2 °F 32.0 °F 87% 30.31 in 7.0 mi NNW 8.1 mph - N/A   Overcast
4:55 AM 35.6 °F 29.9 °F 32.0 °F 87% 30.31 in 7.0 mi NNW 6.9 mph - N/A   Overcast
5:15 AM 35.6 °F 31.7 °F 32.0 °F 87% 30.32 in 7.0 mi NNW 4.6 mph - N/A   Overcast
5:35 AM 37.4 °F 33.8 °F 32.0 °F 81% 30.33 in 7.0 mi NNW 4.6 mph - N/A   Overcast
5:55 AM 37.4 °F 32.1 °F 32.0 °F 81% 30.34 in 7.0 mi NNW 6.9 mph - N/A   Overcast
6:15 AM 37.4 °F 32.8 °F 32.0 °F 81% 30.34 in 7.0 mi NNW 5.8 mph - N/A   Overcast
6:35 AM 37.4 °F 32.8 °F 32.0 °F 81% 30.34 in 7.0 mi NNW 5.8 mph - N/A   Mostly Cloudy
6:50 AM 37.4 °F 33.8 °F 32.0 °F 81% 30.35 in 5.0 mi NW 4.6 mph - N/A   Mostly Cloudy
6:55 AM 37.4 °F 32.8 °F 32.0 °F 81% 30.35 in 7.0 mi NNW 5.8 mph - N/A   Mostly Cloudy
7:50 AM 39.2 °F 35.9 °F 32.0 °F 75% 30.36 in 7.0 mi NW 4.6 mph - N/A   Overcast
8:50 AM 41.0 °F 36.4 °F 32.0 °F 70% 30.37 in 10.0 mi NW 6.9 mph - N/A   Overcast
9:50 AM 42.8 °F 39.3 °F 32.0 °F 66% 30.38 in 10.0 mi North 5.8 mph - N/A   Overcast
10:50 AM 44.6 °F 42.2 °F 32.0 °F 61% 30.38 in 10.0 mi NNW 4.6 mph - N/A   Overcast
11:50 AM 46.4 °F 42.4 °F 33.8 °F 62% 30.36 in 10.0 mi NNW 8.1 mph - N/A   Mostly Cloudy
12:50 PM 53.6 °F - 35.6 °F 51% 30.35 in 10.0 mi West 8.1 mph - N/A   Clear
1:50 PM 55.4 °F - 37.4 °F 51% 30.31 in 10.0 mi North 9.2 mph - N/A   Clear
2:50 PM 59.0 °F - 39.2 °F 48% 30.29 in 10.0 mi NW 5.8 mph - N/A   Clear
3:50 PM 60.8 °F - 39.2 °F 45% 30.25 in 10.0 mi West 3.5 mph - N/A   Clear
4:50 PM 60.8 °F - 39.2 °F 45% 30.24 in 10.0 mi NNE 3.5 mph - N/A   Clear
5:50 PM 60.8 °F - 39.2 °F 45% 30.22 in 10.0 mi Calm Calm - N/A   Clear
6:50 PM 60.8 °F - 39.2 °F 45% 30.22 in 10.0 mi North 3.5 mph - N/A   Clear
7:50 PM 57.2 °F - 39.2 °F 51% 30.22 in 10.0 mi East 3.5 mph - N/A   Clear
9:15 PM 53.6 °F - 37.4 °F 54% 30.22 in 10.0 mi Calm Calm - N/A   Clear
9:35 PM 51.8 °F - 37.4 °F 58% 30.22 in 10.0 mi Calm Calm - N/A   Clear
9:55 PM 51.8 °F - 39.2 °F 62% 30.22 in 10.0 mi Calm Calm - N/A   Clear
10:15 PM 51.8 °F - 39.2 °F 62% 30.22 in 10.0 mi Calm Calm - N/A   Clear
10:35 PM 51.8 °F - 39.2 °F 62% 30.23 in 10.0 mi South 3.5 mph - N/A   Clear
10:55 PM 51.8 °F - 39.2 °F 62% 30.22 in 10.0 mi South 3.5 mph - N/A   Clear
11:15 PM 51.8 °F - 39.2 °F 62% 30.23 in 10.0 mi SSW 3.5 mph - N/A   Clear
11:35 PM 50.0 °F - 39.2 °F 66% 30.22 in 10.0 mi SSW 3.5 mph - N/A   Clear
11:55 PM 50.0 °F - 39.2 °F 66% 30.22 in 10.0 mi SSW 4.6 mph - N/A   Clear
12:15 AM 50.0 °F - 37.4 °F 62% 30.22 in 10.0 mi Calm Calm - N/A   Clear
12:35 AM 48.2 °F - 37.4 °F 66% 30.22 in 10.0 mi SSW 4.6 mph - N/A   Clear
12:55 AM 48.2 °F - 39.2 °F 71% 30.21 in 10.0 mi South 4.6 mph - N/A   Clear